Latest Weather Observations for Charleville

IDQ60801

Issued at 10:05 pm EST Wednesday 23 April 2014 (issued every 30 minutes, with the page automatically refreshed every 10 minutes)

About weather observations | Map of weather stations | Latest weather observations for QLD | Other Formats
Station Details ID: 044021 Name: CHARLEVILLE AERO Lat: -26.41 Lon: 146.26 Height: 301.6 m
Data from the previous 72 hours. | See also: Recent months at Charleville
Date/Time
EST
Temp
°C
App
Temp
°C
Dew
Point
Rel
Hum
%
Delta-T
°C
Wind Press
QNH
hPa
Press
MSL
hPa
Rain
since 9 am
mm
Dir
 
Spd
km/h
Gust
km/h
Spd
kts
Gust
kts
23/10:00pm 21.8 19.3 8.2 41 7.2 ENE 11 11 6 6 1016.0 - 0.0
23/09:30pm 22.1 19.1 7.8 39 7.6 NE 13 15 7 8 1015.9 - 0.0
23/09:00pm 22.1 21.7 8.2 41 7.4 CALM 0 0 0 0 1015.9 1015.0 0.0
23/08:30pm 21.7 21.4 8.6 43 7.0 NE 0 0 0 0 1015.7 - 0.0
23/08:00pm 22.9 22.5 8.3 39 7.8 CALM 0 0 0 0 1015.5 - 0.0
23/07:30pm 24.1 23.6 7.7 35 8.8 CALM 0 0 0 0 1015.3 - 0.0
23/07:00pm 25.0 23.3 7.4 32 9.4 E 6 9 3 5 1015.0 - 0.0
23/06:30pm 26.3 25.2 7.1 29 10.3 SSE 2 9 1 5 1014.9 - 0.0
23/06:00pm 27.7 27.5 9.0 31 10.4 CALM 0 4 0 2 1014.5 1013.6 0.0
23/05:30pm 29.5 26.9 6.0 22 12.6 WSW 9 13 5 7 1014.2 - 0.0
23/05:00pm 29.7 27.9 7.0 24 12.4 SW 6 11 3 6 1014.2 - 0.0
23/04:30pm 30.4 27.5 6.6 22 12.9 W 11 13 6 7 1014.2 - 0.0
23/04:00pm 30.6 28.1 6.4 22 13.1 WNW 9 17 5 9 1014.2 - 0.0
23/03:30pm 29.9 27.9 6.9 23 12.5 S 7 15 4 8 1014.3 - 0.0
23/03:00pm 29.4 27.5 6.8 24 12.2 N 6 9 3 5 1014.4 1013.5 0.0
23/02:30pm 29.0 26.7 7.3 25 11.8 NW 9 13 5 7 1014.7 - 0.0
23/02:00pm 29.0 26.9 8.1 27 11.5 NNE 9 13 5 7 1014.9 - 0.0
23/01:30pm 29.2 27.6 8.8 28 11.4 NE 7 13 4 7 1015.2 - 0.0
23/01:00pm 29.4 27.3 8.3 26 11.7 N 9 15 5 8 1015.7 - 0.0
23/12:30pm 29.2 27.4 9.5 29 11.1 W 9 26 5 14 1016.2 - 0.0
23/12:00pm 29.0 27.4 10.1 30 10.8 NW 9 17 5 9 1016.7 1015.8 0.0
23/11:30am 28.7 26.8 10.6 32 10.4 NW 11 19 6 10 1017.3 - 0.0
23/11:00am 28.1 25.4 9.1 30 10.6 N 13 20 7 11 1017.8 - 0.0
23/10:30am 26.7 24.0 11.6 39 8.7 NW 17 20 9 11 1018.3 - 0.0
23/10:00am 25.5 23.4 12.4 44 7.6 N 15 20 8 11 1018.5 - 0.0
23/09:30am 24.1 21.4 11.7 45 7.1 NNE 17 22 9 12 1018.6 - 0.0
23/09:00am 23.1 19.8 11.5 48 6.6 N 20 28 11 15 1018.6 1017.7 0.0
23/08:30am 22.7 19.3 10.5 46 6.8 N 19 28 10 15 1018.6 - 0.0
23/08:00am 20.6 17.3 8.2 45 6.6 NNE 15 20 8 11 1018.4 - 0.0
23/07:30am 19.2 16.7 8.2 49 5.8 NNE 11 13 6 7 1018.0 - 0.0
23/07:00am 17.5 15.8 8.5 55 4.7 NNE 7 9 4 5 1017.8 - 0.0
23/06:30am 16.9 16.2 8.5 57 4.4 ENE 2 9 1 5 1017.5 - 0.0
23/06:00am 16.1 14.3 8.1 59 4.1 ESE 7 7 4 4 1017.3 1016.4 0.0
23/05:30am 15.7 13.7 8.8 63 3.6 N 9 11 5 6 1017.0 - 0.0
23/05:00am 15.8 14.1 8.3 61 3.9 N 7 9 4 5 1016.9 - 0.0
23/04:30am 16.2 15.8 8.2 59 4.1 CALM 0 0 0 0 1016.7 - 0.0
23/04:00am 16.6 15.0 8.2 57 4.3 N 6 6 3 3 1016.5 - 0.0
23/03:30am 17.2 15.2 8.5 56 4.5 N 9 9 5 5 1016.4 - 0.0
23/03:00am 17.5 15.3 8.0 53 4.9 N 9 9 5 5 1016.4 1015.5 0.0
23/02:30am 19.0 17.0 8.7 51 5.4 NNE 9 9 5 5 1016.4 - 0.0
23/02:00am 20.1 18.0 8.2 46 6.3 NNE 9 9 5 5 1016.5 - 0.0
23/01:30am 21.3 19.0 7.3 40 7.3 NNE 9 11 5 6 1016.7 - 0.0
23/01:00am 22.0 19.0 7.6 39 7.6 NNE 13 19 7 10 1016.9 - 0.0
23/12:30am 21.8 18.8 7.8 40 7.4 N 13 15 7 8 1017.2 - 0.0
23/12:00am 22.5 19.1 7.8 38 7.8 NNE 15 22 8 12 1017.1 1016.2 0.0
 
Date/Time
EST
Temp
°C
App
Temp
°C
Dew
Point
Rel
Hum
%
Delta-T
°C
Wind Press
QNH
hPa
Press
MSL
hPa
Rain
since 9 am
mm
Dir
 
Spd
km/h
Gust
km/h
Spd
kts
Gust
kts
22/11:30pm 23.2 19.8 7.5 36 8.3 NE 15 26 8 14 1017.2 - 0.0
22/11:00pm 22.7 20.1 7.6 38 8.0 NNE 11 15 6 8 1017.3 - 0.0
22/10:30pm 23.0 20.4 7.6 37 8.2 ENE 11 13 6 7 1017.3 - 0.0
22/10:00pm 21.4 18.9 8.0 42 7.1 NE 11 13 6 7 1017.0 - 0.0
22/09:30pm 21.7 19.0 7.4 39 7.5 NE 11 13 6 7 1017.2 - 0.0
22/09:00pm 21.3 20.9 8.3 43 6.9 CALM 0 0 0 0 1016.9 1016.0 0.0
22/08:30pm 21.8 21.2 7.4 39 7.6 CALM 0 0 0 0 1016.9 - 0.0
22/08:00pm 22.5 22.0 8.0 39 7.7 CALM 0 0 0 0 1016.8 - 0.0
22/07:30pm 23.3 22.8 7.9 37 8.2 CALM 0 0 0 0 1016.5 - 0.0
22/07:00pm 24.5 23.8 6.8 32 9.3 CALM 0 0 0 0 1016.2 - 0.0
22/06:30pm 25.8 23.7 6.7 29 10.1 ENE 7 9 4 5 1016.0 - 0.0
22/06:00pm 27.7 26.9 6.4 26 11.3 CALM 0 0 0 0 1015.8 1014.9 0.0
22/05:30pm 29.1 26.4 5.7 22 12.4 N 9 15 5 8 1015.7 - 0.0
22/05:00pm 29.3 27.1 6.2 23 12.4 NW 7 11 4 6 1015.6 - 0.0
22/04:30pm 29.8 27.1 5.7 22 12.8 NW 9 13 5 7 1015.6 - 0.0
22/04:00pm 31.0 27.3 4.4 18 14.0 WNW 13 17 7 9 1015.6 - 0.0
22/03:30pm 30.0 27.3 5.4 21 13.1 NNE 9 13 5 7 1015.7 - 0.0
22/03:00pm 30.5 28.3 6.1 21 13.1 N 7 15 4 8 1015.8 1014.9 0.0
22/02:30pm 30.0 28.2 5.5 21 13.0 WNW 4 11 2 6 1016.0 - 0.0
22/02:00pm 30.0 27.6 7.1 23 12.5 WSW 9 15 5 8 1016.2 - 0.0
22/01:30pm 29.9 26.7 6.7 23 12.6 NW 13 20 7 11 1016.6 - 0.0
22/01:00pm 29.7 25.9 7.7 25 12.1 N 17 24 9 13 1017.2 - 0.0
22/12:30pm 29.7 25.7 8.2 26 11.9 NNE 19 32 10 17 1017.6 - 0.0
22/12:00pm 28.8 24.3 8.4 27 11.3 N 22 30 12 16 1018.4 1017.5 0.0
22/11:30am 27.8 23.8 9.1 31 10.4 N 20 30 11 16 1019.0 - 0.0
22/11:00am 27.5 23.5 9.0 31 10.3 N 20 30 11 16 1019.6 - 0.0
22/10:30am 26.9 22.3 9.8 34 9.6 N 24 26 13 14 1019.9 - 0.0
22/10:00am 25.6 19.8 9.4 36 9.0 N 30 35 16 19 1020.1 - 0.0
22/09:30am 24.4 21.4 10.6 41 7.8 NNE 17 22 9 12 1020.2 - 0.0
22/09:00am 22.3 18.8 10.1 46 6.7 N 19 24 10 13 1020.2 1019.3 0.0
22/08:30am 21.1 17.4 10.0 49 6.1 N 20 28 11 15 1020.2 - 0.0
22/08:00am 19.9 16.7 9.8 52 5.5 NNE 17 20 9 11 1020.0 - 0.0
22/07:30am 18.6 15.6 9.3 54 5.0 NNE 15 17 8 9 1019.6 - 0.0
22/07:00am 17.2 15.2 8.8 57 4.4 N 9 11 5 6 1019.4 - 0.0
22/06:30am 16.7 14.8 8.9 60 4.1 NNE 9 13 5 7 1018.9 - 0.0
22/06:00am 17.0 14.6 8.8 58 4.3 NNE 11 13 6 7 1018.7 1017.8 0.0
22/05:30am 17.3 15.3 8.6 56 4.5 NNE 9 9 5 5 1018.4 - 0.0
22/05:00am 17.9 15.6 8.9 55 4.7 NNE 11 13 6 7 1018.2 - 0.0
22/04:30am 18.3 15.9 8.8 54 5.0 NNE 11 11 6 6 1017.7 - 0.0
22/04:00am 18.5 16.0 8.3 51 5.3 NNE 11 13 6 7 1017.6 - 0.0
22/03:30am 18.3 16.2 8.3 52 5.2 NNE 9 11 5 6 1017.6 - 0.0
22/03:00am 18.4 16.1 7.6 49 5.6 NNE 9 9 5 5 1017.6 1016.8 0.0
22/02:30am 20.0 17.4 7.8 45 6.4 NNE 11 13 6 7 1017.6 - 0.0
22/02:00am 19.1 17.5 8.1 49 5.8 NNW 6 7 3 4 1017.8 - 0.0
22/01:30am 20.7 18.5 7.7 43 6.8 N 9 11 5 6 1017.8 - 0.0
22/01:00am 21.8 18.5 6.5 37 7.9 NNE 13 13 7 7 1017.7 - 0.0
22/12:30am 22.5 18.9 5.2 32 8.7 NNE 13 19 7 10 1017.9 - 0.0
22/12:00am 23.2 19.9 4.7 30 9.3 E 11 13 6 7 1017.9 1017.1 0.0
 
Date/Time
EST
Temp
°C
App
Temp
°C
Dew
Point
Rel
Hum
%
Delta-T
°C
Wind Press
QNH
hPa
Press
MSL
hPa
Rain
since 9 am
mm
Dir
 
Spd
km/h
Gust
km/h
Spd
kts
Gust
kts
21/11:30pm 22.1 19.9 5.5 34 8.4 N 6 15 3 8 1018.0 - 0.0
21/11:00pm 21.7 19.0 5.6 35 8.2 S 9 11 5 6 1017.6 - 0.0
21/10:30pm 22.2 19.1 5.4 33 8.5 SSE 11 15 6 8 1017.6 - 0.0
21/10:00pm 21.9 18.5 5.7 35 8.2 SE 13 17 7 9 1017.6 - 0.0
21/09:30pm 22.8 19.2 5.2 32 8.9 SE 13 15 7 8 1017.6 - 0.0
21/09:00pm 23.2 20.3 4.9 30 9.2 ESE 9 13 5 7 1017.5 1016.6 0.0
21/08:30pm 23.2 22.4 6.4 33 8.7 CALM 0 0 0 0 1017.5 - 0.0
21/08:00pm 23.1 20.7 5.3 31 9.1 ESE 7 11 4 6 1017.4 - 0.0
21/07:30pm 22.8 19.9 4.9 31 9.0 SE 9 15 5 8 1017.2 - 0.0
21/07:00pm 23.5 21.4 5.6 31 9.2 SSE 6 7 3 4 1016.8 - 0.0
21/06:30pm 25.1 24.7 8.3 34 9.1 CALM 0 0 0 0 1016.6 - 0.0
21/06:00pm 27.2 24.8 5.3 24 11.4 S 7 9 4 5 1016.4 1015.5 0.0
21/05:30pm 29.6 27.3 5.8 22 12.7 W 7 11 4 6 1016.2 - 0.0
21/05:00pm 29.8 26.9 4.6 20 13.2 WNW 9 17 5 9 1016.0 - 0.0
21/04:30pm 30.5 27.4 3.8 18 13.8 W 9 13 5 7 1015.9 - 0.0
21/04:00pm 30.5 27.4 3.6 18 13.9 SW 9 13 5 7 1015.9 - 0.0
21/03:30pm 30.7 27.8 4.4 19 13.8 NNW 9 13 5 7 1016.1 - 0.0
21/03:00pm 30.6 28.4 5.5 20 13.4 NW 6 13 3 7 1016.1 1015.2 0.0
21/02:30pm 30.9 28.5 4.1 18 14.0 SSE 6 13 3 7 1016.4 - 0.0
21/02:00pm 30.2 26.4 4.0 19 13.6 N 13 24 7 13 1016.4 - 0.0
21/01:30pm 30.4 27.6 7.1 23 12.8 WNW 11 20 6 11 1016.6 - 0.0
21/01:00pm 29.5 25.7 7.5 25 12.1 NW 17 22 9 12 1017.1 - 0.0
21/12:30pm 28.7 25.2 8.9 29 11.1 NW 17 20 9 11 1017.6 - 0.0
21/12:00pm 28.5 25.5 9.4 30 10.7 NNW 15 20 8 11 1018.2 1017.3 0.0
21/11:30am 27.5 25.5 8.6 30 10.4 N 9 15 5 8 1019.0 - 0.0
21/11:00am 26.2 24.7 8.3 32 9.8 N 6 13 3 7 1019.6 - 0.0
21/10:30am 25.0 23.2 8.0 34 9.2 NNW 7 13 4 7 1020.0 - 0.0
21/10:00am 23.8 21.2 7.6 35 8.6 N 11 17 6 9 1020.2 - 0.0
21/09:30am 23.2 21.2 7.1 35 8.5 ESE 7 13 4 7 1020.2 - 0.0
21/09:00am 21.6 18.5 5.6 35 8.1 E 11 17 6 9 1020.2 1019.3 0.0
21/08:30am 19.5 16.0 5.5 40 7.0 ESE 13 17 7 9 1020.1 - 0.0
21/08:00am 17.0 14.1 4.5 43 6.0 SSE 9 13 5 7 1020.0 - 0.0
21/07:30am 14.9 12.0 4.6 50 4.9 S 9 11 5 6 1019.7 - 0.0
21/07:00am 12.7 9.6 3.8 54 4.1 S 9 11 5 6 1019.3 - 0.0
21/06:30am 12.5 9.0 3.5 54 4.1 S 11 13 6 7 1019.0 - 0.0
21/06:00am 11.5 9.3 3.5 58 3.6 S 4 9 2 5 1018.6 1017.7 0.0
21/05:30am 11.1 8.3 3.3 58 3.5 S 7 9 4 5 1018.5 - 0.0
21/05:00am 11.3 9.2 3.8 60 3.4 S 4 7 2 4 1018.3 - 0.0
21/04:30am 11.5 10.1 3.8 59 3.5 CALM 0 0 0 0 1018.0 - 0.0
21/04:00am 11.9 10.5 3.5 56 3.8 CALM 0 0 0 0 1017.7 - 0.0
21/03:30am 12.4 10.7 4.0 56 3.8 SSE 2 6 1 3 1017.6 - 0.0
21/03:00am 13.1 11.7 3.7 53 4.3 CALM 0 4 0 2 1017.6 1016.8 0.0
21/02:30am 13.4 11.5 2.7 48 4.8 SSE 2 7 1 4 1017.8 - 0.0
21/02:00am 13.9 11.3 4.0 51 4.6 SE 7 9 4 5 1017.7 - 0.0
21/01:30am 14.1 11.5 4.1 51 4.7 SSE 7 9 4 5 1017.8 - 0.0
21/01:00am 14.9 12.3 3.2 45 5.4 SSE 6 7 3 4 1017.9 - 0.0
21/12:30am 16.2 13.8 4.5 45 5.6 SE 6 7 3 4 1017.9 - 0.0
21/12:00am 17.2 13.7 3.5 40 6.4 SE 11 11 6 6 1018.0 1017.2 0.0
 
Date/Time
EST
Temp
°C
App
Temp
°C
Dew
Point
Rel
Hum
%
Delta-T
°C
Wind Press
QNH
hPa
Press
MSL
hPa
Rain
since 9 am
mm
Dir
 
Spd
km/h
Gust
km/h
Spd
kts
Gust
kts
20/11:30pm 17.5 14.0 3.3 38 6.7 SSE 11 11 6 6 1018.0 - 0.0
20/11:00pm 18.3 14.7 3.2 36 7.1 S 11 11 6 6 1018.0 - 0.0
20/10:30pm 19.2 15.2 3.0 34 7.7 S 13 15 7 8 1018.2 - 0.0

Other Formats:

Comma delimited format used in spreadsheet applications
http://www.bom.gov.au/fwo/IDQ60801/IDQ60801.94510.axf

JavaScript Object Notation format (JSON) in row-major order
http://www.bom.gov.au/fwo/IDQ60801/IDQ60801.94510.json